Simultaneous Nadir Overpasses (SNOs) Predictions

Prediction of SNOs between GOES-14 and AQUA Satellite Orbit:

Table of predicted SNOs for the next 14.0 days since TLE Epoch: 12/10/2021
Index Date Time (GOES-14) GOES-14 Lat,Lon AQUA Lat,Lon Distance(km) Time Diff (sec)
1 12/10/2021 20:33:12 -0.03,-104.17 0.01,-103.98 22.37 80
2 12/12/2021 20:21:03 -0.03,-104.18 0.64,-101.02 359.16 80
3 12/13/2021 08:42:20 0.01,-104.50 0.40,-106.19 193.13 80
4 12/15/2021 08:27:31 0.02,-104.51 -0.23,-103.24 143.53 80
5 12/15/2021 20:48:55 -0.00,-104.19 -0.93,-108.42 482.47 80
6 12/17/2021 08:15:22 0.03,-104.52 -0.87,-100.29 480.09 80
7 12/17/2021 20:36:46 -0.01,-104.20 -0.29,-105.47 145.58 80
8 12/19/2021 20:27:17 -0.01,-104.20 0.36,-102.53 191.04 80
9 12/20/2021 08:48:34 0.00,-104.54 0.68,-107.70 359.15 80
10 12/22/2021 08:36:25 0.00,-104.54 0.03,-104.75 22.89 80
11 12/24/2021 08:21:35 0.01,-104.55 -0.57,-101.79 313.61 80
